Minot AFB, ND

8:13 PM CDT on October 22, 2019 (GMT -0500)
Minot Air Force Base

Weather History for KMIB - August, 2019

Change the Weather History Date:

Thursday, August 8, 2019

  Actual Average Record
Temperature  
Mean Temperature 60 °F -  
Max Temperature 76 °F 79 °F 93 °F (1997)
Min Temperature 44 °F 54 °F 44 °F (2019)
Degree Days  
Heating Degree Days 5    
Growing Degree Days 10 (Base 50)    
Moisture  
Dew Point 46 °F    
Average Humidity 58    
Maximum Humidity 91    
Minimum Humidity 32    
Precipitation  
Precipitation 0.00 in - - ()
Sea Level Pressure  
Sea Level Pressure 29.99 in    
Wind  
Wind Speed 1 mph (NW)    
Max Wind Speed 10 mph    
Max Gust Speed -    
Visibility 10 miles    
Events      
Averages and records for this station are not official NWS values.
T = Trace of Precipitation, MM = Missing Value Source: NWS Daily Summary

Daily Weather History Graph

Daily Weather History Graph

Search for Another Location

Airport or City:

Astronomy

Aug. 08, 2019 Rise Set
Actual Time 6:29 AM CDT 9:11 PM CDT
Civil Twilight 5:53 AM CDT 9:47 PM CDT
Nautical Twilight 5:08 AM CDT 10:32 PM CDT
Astronomical Twilight 4:14 AM CDT 11:25 PM CDT
Moon 3:51 PM CDT (8/8) 12:55 AM CDT (8/8)
Length of Visible Light 15h 53m
Length of Day
14h 42m
First Quarter, 60% of the Moon is Illuminated
Aug 8
First Quarter
Aug 15
Full
Aug 23
Last Quarter
Aug 30
New
Sep 5
First Quarter

Hourly Weather History & Observations

Time (CDT) Temp. Windchill Dew Point Humidity Pressure Visibility Wind Dir Wind Speed Gust Speed Precip Events Conditions
12:56 AM - - - N/A% - - North - - N/A   Unknown
3:56 AM 46.6 °F - 44.1 °F 91% 30.01 in 10.0 mi Calm Calm - N/A   Unknown
4:56 AM 44.6 °F - 41.9 °F 90% 30.01 in 10.0 mi Calm Calm - N/A   Clear
5:56 AM 45.3 °F - 42.8 °F 91% 30.00 in 10.0 mi Calm Calm - N/A   Clear
6:56 AM 45.9 °F 43.6 °F 43.2 °F 90% 30.02 in 10.0 mi West 4.6 mph - N/A   Clear
7:56 AM 51.6 °F - 46.9 °F 84% 30.01 in 10.0 mi Calm Calm - N/A   Clear
8:56 AM 58.6 °F - 48.6 °F 69% 30.01 in 10.0 mi Calm Calm - N/A   Clear
9:56 AM 63.0 °F - 48.0 °F 58% 30.02 in 10.0 mi Calm Calm - N/A   Clear
10:56 AM 66.4 °F - 45.5 °F 47% 30.02 in 10.0 mi Calm Calm - N/A   Clear
11:56 AM 69.3 °F - 43.2 °F 39% 30.01 in 10.0 mi NW 9.2 mph - N/A   Clear
12:56 PM 70.7 °F - 43.9 °F 38% 30.01 in 10.0 mi NW 3.5 mph - N/A   Clear
1:56 PM 72.5 °F - 43.3 °F 35% 29.99 in 10.0 mi Calm Calm - N/A   Clear
2:56 PM 73.8 °F - 43.7 °F 34% 29.98 in 10.0 mi NW 10.4 mph - N/A   Clear
3:56 PM 75.0 °F - 43.9 °F 33% 29.98 in 10.0 mi NNW 6.9 mph - N/A   Clear
4:56 PM 76.3 °F - 44.2 °F 32% 29.97 in 10.0 mi NE 4.6 mph - N/A   Clear
6:56 PM 76.1 °F - 45.7 °F 34% 29.96 in 10.0 mi Calm Calm - N/A   Clear
7:57 PM 75.2 °F - 46.4 °F 36% 29.95 in 10.0 mi Calm Calm - N/A   Clear
8:56 PM 68.9 °F - 51.6 °F 54% 29.95 in 10.0 mi Calm Calm - N/A   Clear
9:56 PM 62.2 °F - 52.0 °F 69% 29.96 in 9.0 mi Calm Calm - N/A   Clear
10:56 PM 58.6 °F - 52.9 °F 81% 29.96 in 7.0 mi Calm Calm - N/A   Clear
11:56 PM 63.0 °F - 47.5 °F 57% 29.97 in 10.0 mi Calm Calm - N/A   Clear